sat.trackr.live / text

‹ back to catalog

STARLINK-11580 [DTC]

NORAD 63011 · 2025-032G

PAYLOAD ACTIVE UNKNOWN

§ Identity

Operator
Country
US
Launch date
2025-02-15
Launch site
AFETR
Launch vehicle
Mass (kg)
RCS (m²)

Purposes: comms

External: N2YO · Heavens-Above · Gunter

§ Orbital elements

Epoch: 2026-05-24T21:50:08.090304Z

Period
91.67 min
Inclination
42.9985°
Eccentricity
0.0001213
Mean motion
15.70913079 rev/d
Perigee alt
355.5 km
Apogee alt
357.1 km
Semi-major
6,734.4 km
B*
1.5890e-3
RAAN
95.6949°
Arg perigee
229.6361°
Mean anomaly
130.4401°
Rev number
7,405

§ Raw data

STARLINK-11580 [DTC]1 63011U 25032G   26144.90981586  .00209303  00000+0  15890-2 0  99972 63011  42.9985  95.6949 0001213 229.6361 130.4401 15.70913079 74059

JSON: /api/v1/satellites/63011 · /tle

For live sub-satellite position, see the globe view (requires WebGL).

§ Visibility from observer

Set your observer location to see the next 7 days of passes ≥ 10°. The values pass through the URL so the page stays shareable.

No JS? Fill the form by hand. The geolocation button needs JavaScript.